Flag for Germany Weather past 2 weeks in Bremen, Bremen, Germany

Now
39 °F

Clear.


Feels Like: 33 °F
Forecast: 45 / 65 °F
Wind: 9 mph from Northeast

Location: Bremen Airport


UV Index: 3 (Moderate)

Visibility: 10 mi


Pressure: 30.04 "Hg

Humidity: 100%

Dew point: 39 °F

Location of BremenLocation

Historic Weather in Bremen

°F

Bremen temperature yesterday

Maximum temperature yesterday: 52 °F (at 4:20 PM)
Minimum temperature yesterday: 43 °F (at 1:50 AM)
Average temperature yesterday: 46 °F

Past Weeks' High & Low Weather Summary

 TemperatureHumidityPressure
High68 °F (Apr 7, 2:50 PM)100% (Apr 5, 9:50 PM)30.48 "Hg (Apr 5, 9:50 PM)
Low28 °F (Apr 16, 4:20 AM)39% (Apr 16, 4:20 PM)29.65 "Hg (Apr 8, 7:20 AM)
Average49 °F80%30.02 "Hg
* Reported Apr 4 2:20 AM — Apr 19 2:50 AM, Bremen, Weather by CustomWeather, © 2014

Note: Actual official high and low records may vary slightly from our data, if they occured in-between our weather recording intervals... More about our weather records

Advertising

Historic Weather Conditions — Data for Previous 24 hours

 ConditionsComfort  
Time TempWeatherWind HumidityBarometerVisibility
2:50 AM
Apr 19
41 °FClear.9 mph93%30.04 "Hg10 mi
2:20 AM41 °FClear.9 mph93%30.04 "Hg10 mi
1:50 AM41 °FClear.8 mph93%30.01 "Hg10 mi
1:20 AM43 °FClear.9 mph93%30.01 "Hg10 mi
12:50 AM43 °FPartly cloudy.7 mph100%30.01 "HgN/A
12:20 AM45 °FLight rain. Partly cloudy.7 mph93%29.98 "HgN/A
11:50 PM
Apr 18
45 °FLight rain. Partly cloudy.7 mph93%29.98 "HgN/A
11:20 PM45 °FLight rain. Partly cloudy.6 mph93%29.98 "HgN/A
10:50 PM45 °FLight rain. Partly cloudy.7 mph87%29.98 "HgN/A
10:20 PM45 °FLight rain. Passing clouds.6 mph87%29.95 "HgN/A
9:50 PM43 °FLight rain. Passing clouds.3 mph93%29.95 "HgN/A
9:20 PM43 °FSprinkles. Broken clouds.6 mph93%29.95 "HgN/A
8:50 PM45 °FRain showers. Partly sunny.12 mph87%29.95 "Hg3 mi
8:20 PM48 °FLight rain. Partly sunny.9 mph76%29.92 "HgN/A
7:50 PM50 °FScattered showers. Partly sunny.8 mph67%29.92 "HgN/A
7:20 PM50 °FScattered showers. Partly sunny.17 mph62%29.92 "HgN/A
6:50 PM50 °FScattered clouds.20 mph67%29.89 "HgN/A
6:20 PM50 °FBroken clouds.18 mph71%29.89 "HgN/A
5:50 PM50 °FPartly sunny.16 mph76%29.89 "HgN/A
5:20 PM52 °FScattered clouds.20 mph72%29.89 "HgN/A
4:50 PM52 °FScattered clouds.21 mph67%29.89 "HgN/A
4:20 PM52 °FPassing clouds.17 mph62%29.89 "HgN/A
3:20 PM50 °FPartly sunny.16 mph67%29.89 "HgN/A
2:50 PM48 °FBroken clouds.17 mph66%29.89 "HgN/A
2:20 PM50 °FBroken clouds.20 mph67%29.89 "HgN/A
1:50 PM50 °FBroken clouds.16 mph62%29.86 "HgN/A
1:20 PM50 °FBroken clouds.20 mph62%29.86 "HgN/A
12:50 PM48 °FBroken clouds.20 mph71%29.86 "HgN/A
12:20 PM48 °FSprinkles. Broken clouds.16 mph71%29.86 "HgN/A
11:50 AM48 °FScattered clouds.18 mph76%29.86 "HgN/A
11:20 AM48 °FScattered clouds.16 mph76%29.86 "HgN/A
10:50 AM46 °FSprinkles. Broken clouds.15 mph76%29.86 "HgN/A
10:20 AM46 °FPartly sunny.17 mph76%29.86 "HgN/A
9:50 AM45 °FPartly sunny.15 mph87%29.83 "HgN/A
9:20 AM45 °FSprinkles. Scattered clouds.17 mph87%29.83 "Hg5 mi
8:50 AM46 °FSprinkles. Passing clouds.15 mph87%29.83 "HgN/A
8:20 AM45 °FSprinkles. Scattered clouds.16 mph87%29.83 "HgN/A
7:50 AM43 °FPassing clouds.14 mph87%29.83 "HgN/A
7:20 AM43 °FPassing clouds.15 mph87%29.83 "HgN/A
6:50 AM43 °FPassing clouds.13 mph87%29.80 "HgN/A
6:20 AM43 °FPassing clouds.14 mph87%29.80 "HgN/A
5:50 AM43 °FPassing clouds.13 mph93%29.80 "HgN/A
5:20 AM43 °FPassing clouds.14 mph93%29.80 "HgN/A
4:50 AM43 °FPassing clouds.12 mph87%29.80 "HgN/A
4:20 AM43 °FPassing clouds.10 mph93%29.80 "HgN/A
Weather by CustomWeather, © 2014

See weather overview